Regional Weather Roundup
Issued by NWS

Home | Current Version | Previous Version | Text Only | Print | Product List | Glossary On
Versions: 1 2 3 4 5 6 7 8 9 10 11 12 13 14 15 16 17 18 19 20 21 22 23 24 25 26 27 28 29 30 31 32 33 34 35 36 37 38 39 40 41 42 43 44 45 46 47 48 49 50
599
ASUS43 KMPX 080210
RWRMN
WEATHER ROUNDUP FOR MINNESOTA
NATIONAL WEATHER SERVICE TWIN CITIES/CHANHASSEN MN
800 PM CST WED DEC 07 2016


NOTE: "FAIR" INDICATES FEW OR NO CLOUDS BELOW 12,000 FEET WITH NO
SIGNIFICANT WEATHER AND/OR OBSTRUCTIONS TO VISIBILITY. N/A MEANS
CURRENT SKY AND/OR WEATHER CONDITIONS ARE NOT AVAILABLE.

MNZ060>063-068>070-080300-
   Twin Cities Metro

CITY           SKY/WX    TMP DP  RH WIND       PRES   REMARKS
TWIN CITIES    LGT SNOW  16   8  71 W18G29    30.12R WCI   0
ST PAUL        CLOUDY    17   8  67 W20G26    30.13R WCI   1
CRYSTAL        CLOUDY    16   5  62 W17G29    30.11R WCI   0
BLAINE         CLOUDY    18   9  68 W20G28    30.09S WCI   1
LAKEVILLE      PTCLDY    14   9  79 W23G31    30.13R WCI  -5
EDEN PRAIRIE   LGT SNOW  16   7  67 W20G33    30.13R WCI  -1
SOUTH ST PAUL  CLOUDY    18   9  68 W14G20    30.12S WCI   4
LAKE ELMO      CLOUDY    18   9  68 W18G33    30.11R WCI   2
$$
MNZ001>005-007-008-013>017-022>024-027-028-080300-
   Northwest Minnesota

CITY           SKY/WX    TMP DP  RH WIND       PRES   REMARKS
BEMIDJI        LGT SNOW  20  17  89 W16       29.97R WCI   6
HALLOCK        CLOUDY    21  19  93 NW21G30   30.13R WCI   6
ROSEAU         LGT SNOW  21  16  79 NW14      30.06R WCI   8
WARROAD        CLOUDY    19  18  93 NW12G17   30.04R WCI   7
THIEF RVR FALL LGT SNOW  20  18  92 NW20      30.08R FOG     WCI   4
CROOKSTON      LGT SNOW  21  19  93 N26       30.12R WCI   4
FOSSTON        LGT SNOW  18  16  93 NW14      30.04R WCI   4
DETROIT LAKES  LGT SNOW  18  14  86 NW22G31   30.07R WCI   0
MOORHEAD       MIX PCPN  16  12  86 NW23G31   30.15R WCI  -2
PARK RAPIDS    FLURRIES  17  10  74 W15       30.00R WCI   2
$$
MNZ006-009>011-018-025>026-080300-
   North Central Minnesota

CITY           SKY/WX    TMP DP  RH WIND       PRES   REMARKS
BAUDETTE       LGT SNOW  22  18  85 N20G26    29.97R FOG     WCI   7
FLAG ISLAND    CLOUDY    21  18  86 N24       30.01R WCI   4
INTL FALLS     LGT SNOW  23  18  81 NW12      29.91R WCI  12
WASKISH        LGT SNOW  23  19  86 NW12G18   29.97R WCI  12
BIG FORK       LGT SNOW  23  19  86 NW6       29.90R WCI  16
LONGVILLE      CLOUDY    18  14  86 W10       29.96S WCI   6
GRAND RAPIDS   LGT SNOW  19  16  88 W10       29.93R FOG     WCI   7
CRANE LAKE     LGT SNOW  21  19  93 NW7       29.88R WCI  13
ORR            FLURRIES  21  18  86 NW8       29.85R WCI  12
COOK           LGT SNOW  19  18  93 W7        29.87R WCI  10
$$
MNZ012-019>021-037-080300-
   Northeast Minnesota

CITY           SKY/WX    TMP DP  RH WIND       PRES   REMARKS
DULUTH         LGT SNOW  16  12  84 W21       29.87S FOG     WCI  -1
ELY            LGT SNOW  19  18  93 W6        29.82R WCI  11
HIBBING        LGT SNOW  17  14  88 W7        29.88R FOG     WCI   8
EVELETH        LGT SNOW  20  17  88 W6        29.87R WCI  12
DULUTH HARBOR  FLURRIES  19  16  86 SW18G24   29.94S WCI   4
TWO HARBORS    FLURRIES  21  16  79 W12       29.85R WCI   9
SILVER BAY     CLOUDY    19  16  86 W6        29.82R WCI  11
GRAND MARAIS     N/A     26  22  84 W8        29.80R WCI  18
G MARAIS ARPRT FLURRIES  19  12  73 NW9G20    29.72R WCI   9
$$
MNZ029>031-032-039>041-046>048-054>057-064-080300-
   West Central Minnesota

CITY           SKY/WX    TMP DP  RH WIND       PRES   REMARKS
FERGUS FALLS   LGT SNOW  12   9  85 NW23G29   30.19S WCI  -7
WHEATON        LGT SNOW  14  10  85 W23G31    30.22R WCI  -5
MORRIS         LGT SNOW  12   9  85 W24G30    30.17S VSB 1   WCI  -8
ALEXANDRIA     LGT SNOW  12   8  84 W22G30    30.11R FOG     WCI  -7
ELBOW LAKE     LGT SNOW  11   9  89 NW16G25   30.16R WCI  -5
WADENA         LGT SNOW  12  10  92 W13G21    30.05R WCI  -3
GLENWOOD       LGT SNOW  10   9  92 W20G28    30.12S WCI  -8
APPLETON       CLOUDY    16   7  67 NW22G28   30.22R WCI  -2
BENSON         FLURRIES  12   7  79 NW22G32   30.19R WCI  -7
ORTONVILLE     FLURRIES  12   5  73 NW17G25   30.23R WCI  -5
MADISON        CLOUDY    14   7  73 W24G30    30.25R WCI  -5
WILLMAR        LGT SNOW  14   9  79 W30       30.18R WCI  -7
$$
MNZ033>034-036-042>043-049>051-058-059-080300-
   Central Minnesota

CITY           SKY/WX    TMP DP  RH WIND       PRES   REMARKS
ST CLOUD       FLURRIES  15   8  73 W20G28    30.09R WCI  -2
PAYNESVILLE    FLURRIES  14   8  79 W23G30    30.13S WCI  -5
AITKIN         MIX PCPN  18  10  73 W9G20     29.97R WCI   6
PINE RIVER     LGT SNOW  16  12  86 W7        30.02S WCI   6
BRAINERD       CLOUDY    16  10  77 W16G26    30.01R WCI   1
STAPLES        LGT SNOW  12  10  92 W16       30.04R WCI  -4
LONG PRAIRIE   LGT SNOW  12   9  85 SW15G25   30.08R WCI  -4
LITTLE FALLS   LGT SNOW  16   9  73 W15G21    30.06S WCI   1
LITCHFIELD     LGT SNOW  14   9  79 W21G26    30.14S WCI  -4
BUFFALO        CLOUDY    15   8  73 W14G22    30.13S WCI   1
MAPLE LAKE     CLOUDY    16  10  78 W15G23    30.12S WCI   1
HUTCHINSON     CLOUDY    15   8  76 W24G32    30.16S WCI  -4
$$
MNZ037-044-045-052-053-080300-
   East Central Minnesota

CITY           SKY/WX    TMP DP  RH WIND       PRES   REMARKS
PRINCETON      FLURRIES  18  10  73 W16G23    30.07R WCI   3
MORA           LGT SNOW  18  10  73 W13G20    30.05R WCI   4
CAMBRIDGE      FLURRIES  18   9  68 W14G20    30.05R WCI   4
RUSH CITY      CLOUDY    16  10  79 W14G21    30.05R WCI   1
MOOSE LAKE     LGT SNOW  18  12  79 W12       29.95S WCI   5
HINCKLEY       LGT SNOW  18  12  79 W16G23    30.01S WCI   3
CLOQUET        LGT SNOW  16  10  79 W14G20    29.91R WCI   1
MCGREGOR       CLOUDY    18  12  79 W8        29.96S WCI   7
$$
MNZ071>073-080-081-089-090-097-098-080300-
   Southwest Minnesota

CITY           SKY/WX    TMP DP  RH WIND       PRES   REMARKS
MONTEVIDEO     FLURRIES  12   7  79 NW17G24   30.24R WCI  -5
GRANITE FALLS  CLOUDY    13   8  77 W22G28    30.25S WCI  -5
CANBY          PTCLDY    12   4  71 NW24G31   30.26S WCI  -8
MARSHALL       CLEAR     10   2  69 W21G32    30.25R WCI  -9
REDWOOD FALLS  PTCLDY    13   3  64 W23G35    30.22R WCI  -6
OLIVIA         PTCLDY    16   9  73 W21G28    30.19R WCI  -2
PIPESTONE      CLEAR     10   3  72 NW22G35   30.24S WCI  -9
WINDOM         CLEAR     10   3  72 W28G33    30.22S WCI -11
WORTHINGTON    MOCLDY    10   3  73 W23G39    30.25R WCI -10
JACKSON        CLOUDY    12   5  73 W23G33    30.22S WCI  -7
TRACY          CLEAR     11   4  73 NW20G28   30.24R WCI  -7
SLAYTON        PTCLDY     9   3  77 W29G37    30.23S WCI -13
$$
MNZ065>067-074>077-082>085-091>093-080300-
   South Central Minnesota

CITY           SKY/WX    TMP DP  RH WIND       PRES   REMARKS
MANKATO        FLURRIES  14   6  70 W26       30.18F WCI  -6
NEW ULM        PTCLDY    12   3  67 W25       30.21R WCI  -8
ST JAMES       CLEAR     12   5  73 W20       30.24R WCI  -6
FAIRMONT       CLEAR     13   4  67 NW25G37   30.23R WCI  -7
GLENCOE        CLOUDY    16  10  80 W16G29    30.16R WCI   0
OWATONNA       FLURRIES  16   9  73 W23       30.16R WCI  -2
WASECA         CLOUDY    18  10  73 W26       30.19R WCI  -1
ALBERT LEA     CLOUDY    19  10  68 W20G31    30.17R WCI   4
$$
MNZ078>079-086>088-094>096-080300-
   Southeast Minnesota

CITY           SKY/WX    TMP DP  RH WIND       PRES   REMARKS
ROCHESTER      LGT SNOW  16   9  74 NW25      30.11R WCI  -3
RED WING       MOCLDY    19   9  63 W18G29    30.10S WCI   4
STANTON        LGT SNOW  19  13  78 W15G21    30.13S WCI   5
DODGE CENTER   FLURRIES  16   9  73 W17G31    30.12S WCI   0
WINONA         FLURRIES  21  12  68 NW13      30.13R WCI   9
AUSTIN         FLURRIES  16   9  73 W23G29    30.15R WCI  -2
PRESTON        CLOUDY    17  10  74 W20G28    30.12S WCI   1
$$
ABBREVIATIONS USED IN REMARKS
   TC - TEMPERATURES IN CELSIUS
  WCI - WIND CHILL INDEX
   HX - HEAT INDEX
  VSB - VISIBILITY
$$




USA.gov is the U.S. government's official web portal to all federal, state and local government web resources and services.